Location: New Greens
(51.7702°N, 0.3379°W)
Time: 06:03:20
(UTC+00:00)

Envisat - Pass Details

Date: 24 January 2019
Orbit: 764 x 766 km, 98.2° (Epoch: 20 February)

Event Time Altitude Azimuth Distance (km) Brightness Sun altitude
Rises 17:15:55 0° 126° (SE) 3,228 5.9 -6.5°
Reaches altitude 10° 17:18:32 10° 114° (ESE) 2,306 5.1 -6.8°
Maximum altitude 17:22:40 26° 60° (ENE) 1,484 3.9 -7.4°
Drops below altitude 10° 17:26:50 10° 5° (N) 2,317 5.2 -8.0°
Sets 17:29:27 0° 353° (N) 3,248 6.1 -8.4°
